Location: ??????
(44.5958°N, 34.0092°E)
Time: 03:04:17
(UTC+00:00)

Cosmos 1980 Rocket - Pass Details

Date: 06 June 2020
Orbit: 828 x 851 km, 71.0° (Epoch: 06 July)

Event Time Altitude Azimuth Distance (km) Brightness Sun altitude
Exits shadow 01:07:23 - 269° (W) 3,369 4.9 -8.1°
Reaches altitude 10° 01:11:35 10° 300° (WNW) 2,459 4.5 -7.6°
Maximum altitude 01:13:42 12° 322° (NW) 2,322 4.6 -7.3°
Drops below altitude 10° 01:15:49 10° 344° (NNW) 2,469 5.0 -7.0°
Sets 01:20:07 0° 15° (NNE) 3,415 6.4 -6.4°
